STARLINK-32808, 62863

Orbit data source: Space-Track

STARLINK-32808, 62863 is a payload satellite owned by SpaceX/Seattle (US) in LEO that was launched on Sat, 01 Feb 2025 UTC via an FALCON 9 launch vehicle from the Air Force Western Test Range (AFWTR). Payload-class satellites include a variety of spacecraft equipped with specific instruments for various scientific and technological missions. These include communications satellites like Starlink; space stations such as the ISS; scientific satellites like the Hubble; Earth observation satellites from companies like Planet Labs, Umbra, and HawkEye 360; GPS; miniature CubeSats for education and research; and military/defense satellites.

Loading next visibility...
Identifier
62863, 2025-022K
Orbit
LEO
Last TLE update
7 hours ago
Origin
Manufacturer
SpaceX/Seattle
Mission
Operational Commercial Communications
Bus & Motor
STARLINK V2M, Unknown motor
Mass
730 kg wet, ~700 kg dry
Launch date (UTC)
2025-02-01 (5 months ago)
Launch vehicle
FALCON 9
Launch site
Air Force Western Test Range (AFWTR)
Object type
Payload
Rocket body
Debris
Shape & HBR
Box + 2 Pan, 29 m
Radar Cross Section
33.884 m², Large (>1 m²)

Expand to show TLE details & history

TLE from 7 hours ago
0 STARLINK-32808
1 62863U 25022K   25182.10398948  .00023898  00000-0  60533-3 0  9996
2 62863  53.1574 218.7465 0001089  69.9610 290.1511 15.39631281 24121
Epoch: 2025-07-01T02:29Z
TLE epoch observation values (Epoch: 2025-07-01T02:29:44.691Z)
Latitude
-0.00008°
Longitude
-98.09401°
Altitude
447.846 km
Speed
7.645 km/s
True Right ascension
14h 34m 59s
True Declination
0° 00' 00"
Sunlit
Object was in full shadow at epoch
Visualization orbit readout
Latitude
48.0463°
Longitude
-43.39351°
Altitude
451.79 km
Speed
7.648 km/s
Apparent Right ascension
13h 02m 50s
Apparent Declination
18° 19' 04"
Sunlit
Object is in daylight
Visualization observer readout
Local Sidereal Time
20:39:29
Azimuth
299.517° NW
Elevation
-5.529°
Doppler factor
1
Orbital elements
Apogee altitude
448.2 km
Perigee altitude
446.713 km
Semi-major axis
6,825.594 km
Eccentricity
0.00011
Inclination
53.1574°
RAAN
218.7465°
Arg. of periapsis
69.961°
True anomaly
Unknown
Mean anomaly
290.1511°
Eccentric anomaly
Unknown
Mean motion
3.84886 °/min
Orbital period
93.53 mins
BSTAR
0.00060533
Loading maneuver chart data...
Loading SW <> Apogee altitude chart data...
Loading historical data...
Loading historical data...
Loading historical data...
Loading historical data...
Loading historical data...
Loading historical data...
Loading historical data...

STARLINK-32808 Visibility forecast

Observer location: undefined°, undefined°

Span
Click to sort rows by Start time (UTC) header in descending order
Start Az.
Max El. time (UTC)
Max El. Az.
Max El.
End time (UTC)
End Az.
4 mins2025-07-01 10:44:16.391Z344.01° N2025-07-01 10:46:16.391Z24.699° NE18.327°2025-07-01 10:48:16.391Z65.119° ENE
5 mins2025-07-01 12:22:16.391Z300.022° NW2025-07-01 12:24:16.391Z171.763° S41.467°2025-07-01 12:27:16.391Z138.278° SSE
6 mins2025-07-02 05:10:16.391Z233.959° WSW2025-07-02 05:13:16.391Z29.23° NE41.947°2025-07-02 05:16:16.391Z48.124° ENE
|